API VERSION: 1.2 API SOURCE: NASA/JPL Horizons API ******************************************************************************* JPL/HORIZONS 145452 Ritona (2005 RN43) 2025-Dec-12 17:52:29 Rec #: 145452 (+COV) Soln.date: 2025-Nov-27_20:43:52 # obs: 1728 (1954-2025) IAU76/J2000 helio. ecliptic osc. elements (au, days, deg., period=Julian yrs): EPOCH= 2458313.5 ! 2018-Jul-14.00 (TDB) Residual RMS= .12084 EC= .02255491497401281 QR= 40.60278715405874 TP= 2460833.4231393654 OM= 186.9399595393847 W= 165.5338476061504 IN= 19.30219609287185 A= 41.53971182225469 MA= 350.723243667185 ADIST= 42.47663649045064 PER= 267.73394 N= .003681365 ANGMOM= .110841574 DAN= 42.44558 DDN= 40.6312 L= 353.2555482 B= 4.7365454 MOID= 39.60029984 TP= 2025-Jun-06.9231393654 Asteroid physical parameters (km, seconds, rotational period in hours): GM= n.a. RAD= n.a. ROTPER= 6.95 H= 3.69 G= .150 B-V= n.a. ALBEDO= n.a. STYP= n.a. ASTEROID comments: 1: soln ref.= JPL#43, OCC=0 2: source=ORB ******************************************************************************* ******************************************************************************* Ephemeris / API_USER Fri Dec 12 17:52:29 2025 Pasadena, USA / Horizons ******************************************************************************* Target body name: 145452 Ritona (2005 RN43) {source: JPL#43} Center body name: Sun (10) {source: DE441} Center-site name: BODYCENTRIC ******************************************************************************* Start time : A.D. 1760-Nov-01 00:00:00.0000 UT Stop time : A.D. 1760-Nov-30 00:00:00.0000 UT Step-size : 1440 minutes ******************************************************************************* Target pole/equ : undefined Target radii : undefined Center geodetic : 0.0, 0.0, -695700.0 {E-lon(deg),Lat(deg),Alt(km)} Center cylindric: 0.0, 0.0, 0.0 {E-lon(deg),Dxy(km),Dz(km)} Center pole/equ : IAU_SUN {East-longitude positive} Center radii : 695700.0, 695700.0, 695700.0 km {Equator_a, b, pole_c} Target primary : Sun Vis. interferer : None Rel. light bend : Sun {source: DE441} Rel. lght bnd GM: 1.3271E+11 km^3/s^2 Small-body perts: Yes {source: SB441-N16} Atmos refraction: NO (AIRLESS) RA format : HMS Time format : CAL Calendar mode : Mixed Julian/Gregorian EOP file : eop.251212.p260310 EOP coverage : DATA-BASED 1962-JAN-20 TO 2025-DEC-12. PREDICTS-> 2026-MAR-09 Units conversion: 1 au= 149597870.700 km, c= 299792.458 km/s, 1 day= 86400.0 s Table cut-offs 1: Elevation (-90.0deg=NO ),Airmass n.a. , Daylight (NO ) Table cut-offs 2: Solar elongation ( 0.0,180.0=NO ),Local Hour Angle( 0.0=NO ) Table cut-offs 3: RA/DEC angular rate ( 0.0=NO ) ******************************************************************************* Initial IAU76/J2000 heliocentric ecliptic osculating elements (au, days, deg.): EPOCH= 2458313.5 ! 2018-Jul-14.00 (TDB) Residual RMS= .12084 EC= .02255491497401281 QR= 40.60278715405874 TP= 2460833.4231393654 OM= 186.9399595393847 W= 165.5338476061504 IN= 19.30219609287185 Equivalent ICRF heliocentric cartesian coordinates (au, au/d): X= 3.867964618832768E+01 Y=-1.237415303285848E+01 Z= 6.269021976499458E-01 VX= 8.156754147379901E-04 VY= 2.594457046216735E-03 VZ= 2.263232767699120E-04 Asteroid physical parameters (km, seconds, rotational period in hours): GM= n.a. RAD= n.a. ROTPER= 6.95 H= 3.69 G= .150 B-V= n.a. ALBEDO= n.a. STYP= n.a. ******************************************************************************* Date__(UT)__HR:MN delta deldot *************************************************** $$SOE 1760-Nov-01 00:00 40.5821029299714 0.0001131 1760-Nov-02 00:00 40.5821029918826 0.0001013 1760-Nov-03 00:00 40.5821030469784 0.0000895 1760-Nov-04 00:00 40.5821030952145 0.0000776 1760-Nov-05 00:00 40.5821031365470 0.0000656 1760-Nov-06 00:00 40.5821031709323 0.0000535 1760-Nov-07 00:00 40.5821031983271 0.0000414 1760-Nov-08 00:00 40.5821032186884 0.0000291 1760-Nov-09 00:00 40.5821032319733 0.0000169 1760-Nov-10 00:00 40.5821032381395 0.0000045 1760-Nov-11 00:00 40.5821032371448 -0.0000079 1760-Nov-12 00:00 40.5821032289474 -0.0000205 1760-Nov-13 00:00 40.5821032135055 -0.0000330 1760-Nov-14 00:00 40.5821031907779 -0.0000457 1760-Nov-15 00:00 40.5821031607234 -0.0000584 1760-Nov-16 00:00 40.5821031233012 -0.0000712 1760-Nov-17 00:00 40.5821030784705 -0.0000841 1760-Nov-18 00:00 40.5821030261911 -0.0000970 1760-Nov-19 00:00 40.5821029664228 -0.0001100 1760-Nov-20 00:00 40.5821028991256 -0.0001231 1760-Nov-21 00:00 40.5821028242599 -0.0001362 1760-Nov-22 00:00 40.5821027417863 -0.0001494 1760-Nov-23 00:00 40.5821026516657 -0.0001627 1760-Nov-24 00:00 40.5821025538596 -0.0001760 1760-Nov-25 00:00 40.5821024483295 -0.0001894 1760-Nov-26 00:00 40.5821023350378 -0.0002029 1760-Nov-27 00:00 40.5821022139475 -0.0002164 1760-Nov-28 00:00 40.5821020850222 -0.0002300 1760-Nov-29 00:00 40.5821019482267 -0.0002437 1760-Nov-30 00:00 40.5821018035271 -0.0002574 $$EOE ******************************************************************************* Column meaning: TIME Times PRIOR to 1962 are UT1, a mean-solar time closely related to the prior but now-deprecated GMT. Times AFTER 1962 are in UTC, the current civil or "wall-clock" time-scale. UTC is kept within 0.9 seconds of UT1 using integer leap-seconds for 1972 and later years. Conversion from the internal Barycentric Dynamical Time (TDB) of solar system dynamics to the non-uniform civil UT time-scale requested for output has not been determined for UTC times after the next July or January 1st. Therefore, the last known leap-second is used as a constant over future intervals. Time tags refer to the UT time-scale conversion from TDB on Earth regardless of observer location within the solar system, although clock rates may differ due to the local gravity field and no analog to "UT" may be defined for that location. Any 'b' symbol in the 1st-column denotes a B.C. date. First-column blank (" ") denotes an A.D. date. CALENDAR SYSTEM Mixed calendar mode was active such that calendar dates after AD 1582-Oct-15 (if any) are in the modern Gregorian system. Dates prior to 1582-Oct-5 (if any) are in the Julian calendar system, which is automatically extended for dates prior to its adoption on 45-Jan-1 BC. The Julian calendar is useful for matching historical dates. The Gregorian calendar more accurately corresponds to the Earth's orbital motion and seasons. A "Gregorian-only" calendar mode is available if such physical events are the primary interest. NOTE: "n.a." in output means quantity "not available" at the print-time. 'delta deldot' = Apparent range ("delta", light-time aberrated) and range-rate ("delta-dot") of the target center relative to the observer. A positive "deldot" means the target center is moving away from the observer, negative indicates movement toward the observer. Units: AU and KM/S Computations by ... Solar System Dynamics Group, Horizons On-Line Ephemeris System 4800 Oak Grove Drive, Jet Propulsion Laboratory Pasadena, CA 91109 USA General site: https://ssd.jpl.nasa.gov/ Mailing list: https://ssd.jpl.nasa.gov/email_list.html System news : https://ssd.jpl.nasa.gov/horizons/news.html User Guide : https://ssd.jpl.nasa.gov/horizons/manual.html Connect : browser https://ssd.jpl.nasa.gov/horizons/app.html#/x API https://ssd-api.jpl.nasa.gov/doc/horizons.html command-line telnet ssd.jpl.nasa.gov 6775 e-mail/batch https://ssd.jpl.nasa.gov/ftp/ssd/horizons_batch.txt scripts https://ssd.jpl.nasa.gov/ftp/ssd/SCRIPTS Author : Jon.D.Giorgini@jpl.nasa.gov *******************************************************************************